Regional Weather Roundup
Issued by NWS

Home | Current Version | Previous Version | Text Only | Print | Product List | Glossary On
Versions: 1 2 3 4 5 6 7 8 9 10 11 12 13 14 15 16 17 18 19 20 21 22 23 24 25 26 27 28 29 30 31 32 33 34 35 36 37 38 39 40 41 42 43 44 45 46 47 48 49 50
000
ASUS45 KABQ 291810
RWRNM
WEATHER ROUNDUP FOR NEW MEXICO
NATIONAL WEATHER SERVICE ALBUQUERQUE NM
1100 AM MST THU JAN 29 2015

NOTE: "FAIR" MEANS FEW OR NO CLOUDS BELOW 12,000 FEET AGL WITH NO
       SIGNIFICANT WEATHER OR OBSTRUCTIONS TO VISION.

      THIS PRODUCT IS RELEASED AS TWO VERSIONS.  ONE VERSION NEAR
      THE TOP OF THE HOUR CONTAINING PRELIMINARY DATA FROM ALBUQUERQUE
      AND OTHER STATIONS.  A FINAL VERSION WITH ADDITIONAL DATA IS
      ISSUED ABOUT 10 MINUTES AFTER THE HOUR.

NMZ501-503-504-510>518-291900-
NORTHWEST PLATEAU/NORTHCENTRAL MOUNTAINS

CITY           SKY/WX    TMP DP  RH WIND       PRES   REMARKS
FARMINGTON     SUNNY     43  30  60 SE6       30.37R
6HR MIN TEMP:  32; 6HR MAX TEMP:  43;

LOS ALAMOS     CLOUDY    41  28  58 SW14      30.46S
SANTA FE       CLOUDY    48  24  39 SE16      30.44R
6HR MIN TEMP:  35; 6HR MAX TEMP:  48;

TAOS           CLOUDY    43  27  52 CALM      30.45F
ANGEL FIRE     MOCLDY    37  27  67 S12G17    30.49F WCI  29

$$
NMZ402-403-502-505>509-291900-
WESTCENTRAL MOUNTAINS/SOUTHWEST MOUNTAINS

CITY           SKY/WX    TMP DP  RH WIND       PRES   REMARKS
GALLUP         CLOUDY    47  29  49 NE6       30.36R
6HR MIN TEMP:  32; 6HR MAX TEMP:  47;

GRANTS         CLOUDY    46  29  52 SE22G29   30.41R
SILVER CITY    CLOUDY    55  32  41 SE3       30.33R

$$
NMZ407-409-411-412-291900-
SOUTHERN DESERTS

CITY           SKY/WX    TMP DP  RH WIND       PRES   REMARKS
LORDSBURG      FAIR      54  34  47 SE16G22   30.28R
DEMING         CLOUDY    59  32  36 E14G28    30.31R
6HR MIN TEMP:  39; 6HR MAX TEMP:  59;

LAS CRUCES     CLOUDY    54  36  52 CALM      30.33S
HOLLOMAN AFB   PTSUNNY   52  39  62 S5        30.32R
ALAMOGORDO     PTSUNNY   54  39  58 S6        30.34R
T OR C         CLOUDY    52  31  44 N21G29    30.35R
6HR MIN TEMP:  46; 6HR MAX TEMP:  53;


$$
NMZ519>523-291900-
CENTRAL VALLEYS/CENTRAL HIGHLANDS

CITY           SKY/WX    TMP DP  RH WIND       PRES   REMARKS
ALBUQUERQUE    CLOUDY    51  27  39 E29G38    30.41R
6HR MIN TEMP:  42; 6HR MAX TEMP:  51;

DOUBLE EAGLE   CLOUDY    48  28  46 E26       30.43R
MORIARTY ARPT  FAIR      46  26  45 E21G26    30.49S
6HR MIN TEMP:  34; 6HR MAX TEMP:  47;

CLINES CORNERS CLOUDY    40  25  55 E26G33    30.46F WCI  29
6HR MIN TEMP:  35; 6HR MAX TEMP:  41;

BELEN          FAIR      52  31  44 W10       30.40S
6HR MIN TEMP:  35; 6HR MAX TEMP:  52;

SOCORRO        FAIR      52  29  42 E15       30.42R
6HR MIN TEMP:  42; 6HR MAX TEMP:  53;


$$
NMZ524>526-539-540-291900-
SOUTHCENTRAL MOUNTAINS

CITY           SKY/WX    TMP DP  RH WIND       PRES   REMARKS
RUIDOSO        CLOUDY    39  27  60 E15       30.51S WCI  31

$$
NMZ527>531-291900-
NORTHEAST HIGHLANDS/NORTHEAST PLAINS

CITY           SKY/WX    TMP DP  RH WIND       PRES   REMARKS
LAS VEGAS      CLOUDY    38  29  70 NE10      30.52R WCI  31
6HR MIN TEMP:  33; 6HR MAX TEMP:  38;

RATON          CLOUDY    42  24  49 NE7       30.51S
6HR MIN TEMP:  33; 6HR MAX TEMP:  42;

CLAYTON        CLOUDY    45  26  47 N13       30.51S
6HR MIN TEMP:  40; 6HR MAX TEMP:  45;


$$
NMZ532>537-291900-
EASTCENTRAL PLAINS

CITY           SKY/WX    TMP DP  RH WIND       PRES   REMARKS
TUCUMCARI      CLOUDY    49  21  33 NE15      30.51R
6HR MIN TEMP:  37; 6HR MAX TEMP:  50;

CANNON AFB     PTSUNNY   49  25  39 NE23G31   30.48R
6HR MIN TEMP:  40; 6HR MAX TEMP:  49;

CLOVIS AIRPORT PTSUNNY   50  25  37 NE23G31   30.49S

$$
NMZ028-029-538-291900-
SOUTHEAST PLAINS

CITY           SKY/WX    TMP DP  RH WIND       PRES   REMARKS
ROSWELL        PTSUNNY   54  33  45 N14       30.48R
6HR MIN TEMP:  47; 6HR MAX TEMP:  54;

ARTESIA        CLOUDY    52  36  54 N13G21    30.48S
CARLSBAD       CLOUDY    56  34  43 N18       30.44R
6HR MIN TEMP:  48; 6HR MAX TEMP:  56;

HOBBS          SUNNY     54  32  43 NE21G30   30.42S


$$



USA.gov is the U.S. government's official web portal to all federal, state and local government web resources and services.